Location: Stoke Bliss
(52.2667°N, 2.5167°W)
Time: 16:08:56
(UTC+00:00)

N. Korean satellite - Pass Details

Date: 08 December 2021
Orbit: 446 x 492 km, 97.3° (Epoch: 16 January)

Event Time Altitude Azimuth Distance (km) Brightness Sun altitude
Rises 16:35:00 0° 172° (S) 2,513 10.5 -5.6°
Reaches altitude 10° 16:37:04 10° 176° (S) 1,632 9.6 -5.8°
Maximum altitude 16:40:33 64° 258° (WSW) 520 7.0 -6.3°
Drops below altitude 10° 16:44:00 10° 341° (NNW) 1,619 9.1 -6.8°
Sets 16:46:03 0° 345° (NNW) 2,491 10.0 -7.0°
